NOZ173 ENKB-ENBR

Flight info

Callsign NOZ173
Flight time 0h 39m
Altitude 30000
Route TUTOP DCT NIDGI
Aircraft B38M/M-SDE1FGHILORVWXY/HB1

Departure

Time 2026-04-20 17:41
Airport Kristiansund Airport, Kvernberget (ENKB)

Arrival

Time 2026-04-20 18:20
Airport Bergen Airport, Flesland (ENBR)
Time Latitude Longitude Altitude Speed Heading
2026-04-20 17:26 63.11332 7.82543 221 ft 0 kts 341°
2026-04-20 17:34 63.11319 7.82552 215 ft 3 kts 341°
2026-04-20 17:34 63.11305 7.82576 215 ft 3 kts 285°
2026-04-20 17:34 63.11305 7.82604 213 ft 0 kts 250°
2026-04-20 17:37 63.11304 7.82599 213 ft 2 kts 245°
2026-04-20 17:37 63.11263 7.82576 213 ft 9 kts 171°
2026-04-20 17:37 63.11222 7.82692 213 ft 14 kts 84°
2026-04-20 17:37 63.11261 7.82951 217 ft 20 kts 71°
2026-04-20 17:38 63.11310 7.83258 215 ft 22 kts 71°
2026-04-20 17:38 63.11361 7.83590 220 ft 24 kts 71°
2026-04-20 17:38 63.11416 7.83955 210 ft 27 kts 71°
2026-04-20 17:38 63.11481 7.84377 209 ft 31 kts 71°
2026-04-20 17:39 63.11545 7.84802 202 ft 20 kts 72°
2026-04-20 17:39 63.11573 7.85059 200 ft 15 kts 96°
2026-04-20 17:39 63.11590 7.85128 197 ft 4 kts 351°
2026-04-20 17:39 63.11592 7.85061 200 ft 6 kts 226°
2026-04-20 17:40 63.11575 7.85012 209 ft 0 kts 244°
2026-04-20 17:40 63.11559 7.84922 199 ft 33 kts 249°
2026-04-20 17:40 63.11389 7.83817 218 ft 116 kts 251°
2026-04-20 17:40 63.11068 7.81635 309 ft 176 kts 253°
2026-04-20 17:41 63.10670 7.78877 1063 ft 197 kts 253°
2026-04-20 17:41 63.10249 7.75955 2149 ft 200 kts 253°
2026-04-20 17:41 63.09811 7.72922 2915 ft 220 kts 254°
2026-04-20 17:41 63.09344 7.69500 3634 ft 237 kts 254°
2026-04-20 17:42 63.08870 7.66065 4852 ft 237 kts 253°
2026-04-20 17:42 63.08362 7.62455 5591 ft 256 kts 252°
2026-04-20 17:42 63.07735 7.58720 6586 ft 261 kts 248°
2026-04-20 17:42 63.07076 7.54978 7650 ft 264 kts 249°
2026-04-20 17:43 63.06429 7.51120 8565 ft 272 kts 249°
2026-04-20 17:43 63.05441 7.47599 9581 ft 273 kts 225°
2026-04-20 17:43 63.04015 7.44754 10471 ft 281 kts 223°
2026-04-20 17:43 63.02534 7.41809 11108 ft 296 kts 222°
2026-04-20 17:44 63.00947 7.38685 11530 ft 316 kts 222°
2026-04-20 17:44 62.99264 7.35396 12077 ft 330 kts 221°
2026-04-20 17:44 62.97517 7.31993 12804 ft 337 kts 221°
2026-04-20 17:44 62.95753 7.28569 13665 ft 341 kts 221°
2026-04-20 17:45 62.93963 7.25099 14460 ft 345 kts 221°
2026-04-20 17:45 62.92152 7.21599 15171 ft 349 kts 221°
2026-04-20 17:45 62.90319 7.18058 15897 ft 352 kts 221°
2026-04-20 17:45 62.88470 7.14494 16616 ft 356 kts 221°
2026-04-20 17:46 62.86604 7.10903 17312 ft 359 kts 220°
2026-04-20 17:46 62.84716 7.07277 18010 ft 362 kts 220°
2026-04-20 17:46 62.82811 7.03625 18671 ft 366 kts 220°
2026-04-20 17:46 62.80885 6.99939 19259 ft 369 kts 220°
2026-04-20 17:47 62.78947 6.96236 19843 ft 372 kts 220°
2026-04-20 17:47 62.76989 6.92503 20417 ft 375 kts 220°
2026-04-20 17:47 62.75018 6.88752 20983 ft 378 kts 220°
2026-04-20 17:47 62.73056 6.85023 21531 ft 381 kts 220°
2026-04-20 17:48 62.71053 6.81225 22093 ft 383 kts 220°
2026-04-20 17:48 62.69031 6.77397 22645 ft 386 kts 220°
2026-04-20 17:48 62.66967 6.73496 23191 ft 389 kts 220°
2026-04-20 17:48 62.64966 6.69619 23743 ft 391 kts 222°
2026-04-20 17:49 62.62953 6.65632 24293 ft 392 kts 222°
2026-04-20 17:49 62.60922 6.61634 24686 ft 396 kts 222°
2026-04-20 17:49 62.58872 6.57610 25102 ft 399 kts 221°
2026-04-20 17:49 62.56807 6.53567 25532 ft 401 kts 221°
2026-04-20 17:50 62.54725 6.49497 25936 ft 404 kts 221°
2026-04-20 17:50 62.52627 6.45406 26340 ft 407 kts 221°
2026-04-20 17:50 62.50513 6.41289 26725 ft 410 kts 221°
2026-04-20 17:50 62.48384 6.37154 27111 ft 413 kts 221°
2026-04-20 17:51 62.46238 6.32993 27481 ft 416 kts 221°
2026-04-20 17:51 62.44076 6.28811 27843 ft 419 kts 221°
2026-04-20 17:51 62.41899 6.24609 28216 ft 421 kts 221°
2026-04-20 17:51 62.39706 6.20383 28566 ft 424 kts 220°
2026-04-20 17:52 62.37500 6.16138 28935 ft 426 kts 221°
2026-04-20 17:52 62.35289 6.11897 29378 ft 426 kts 221°
2026-04-20 17:52 62.33066 6.07639 29685 ft 429 kts 220°
2026-04-20 17:52 62.30826 6.03360 30018 ft 432 kts 220°
2026-04-20 17:53 62.28572 5.99061 30347 ft 434 kts 220°
2026-04-20 17:53 62.26303 5.94742 30549 ft 439 kts 220°
2026-04-20 17:53 62.24022 5.90410 30497 ft 449 kts 220°
2026-04-20 17:54 62.19271 5.81416 30501 ft 460 kts 220°
2026-04-20 17:54 62.14434 5.72300 30508 ft 466 kts 220°
2026-04-20 17:55 62.09560 5.63153 30517 ft 466 kts 220°
2026-04-20 17:55 62.04710 5.54091 30502 ft 462 kts 220°
2026-04-20 17:56 61.99682 5.45629 30489 ft 460 kts 206°
2026-04-20 17:56 61.93670 5.40955 30490 ft 461 kts 199°
2026-04-20 17:57 61.87597 5.36599 30502 ft 461 kts 198°
2026-04-20 17:57 61.81508 5.32328 30506 ft 461 kts 198°
2026-04-20 17:58 61.75426 5.28086 30504 ft 460 kts 198°
2026-04-20 17:58 61.69388 5.23892 30508 ft 460 kts 198°
2026-04-20 17:59 61.63313 5.19690 30516 ft 460 kts 198°
2026-04-20 17:59 61.57235 5.15504 30507 ft 460 kts 198°
2026-04-20 18:00 61.51157 5.11335 30504 ft 460 kts 198°
2026-04-20 18:00 61.48151 5.09279 30485 ft 445 kts 198°
2026-04-20 18:00 61.45250 5.07299 30163 ft 434 kts 198°
2026-04-20 18:00 61.42396 5.05355 29580 ft 429 kts 198°
2026-04-20 18:01 61.39579 5.03440 29032 ft 424 kts 198°
2026-04-20 18:01 61.36792 5.01549 28484 ft 419 kts 199°
2026-04-20 18:01 61.34034 4.99681 27949 ft 415 kts 199°
2026-04-20 18:01 61.31301 4.97833 27426 ft 411 kts 199°
2026-04-20 18:02 61.28592 4.96005 26908 ft 407 kts 199°
2026-04-20 18:02 61.25911 4.94199 26414 ft 404 kts 199°
2026-04-20 18:02 61.23249 4.92409 25897 ft 401 kts 199°
2026-04-20 18:02 61.20606 4.90635 25406 ft 398 kts 199°
2026-04-20 18:03 61.17979 4.88875 24931 ft 395 kts 199°
2026-04-20 18:03 61.15371 4.87131 24451 ft 393 kts 199°
2026-04-20 18:03 61.12777 4.85398 23976 ft 391 kts 199°
2026-04-20 18:03 61.10198 4.83678 23430 ft 389 kts 199°
2026-04-20 18:04 61.07664 4.81992 22890 ft 387 kts 199°
2026-04-20 18:04 61.05032 4.80921 22339 ft 387 kts 184°
2026-04-20 18:04 61.02347 4.80787 21825 ft 385 kts 184°
2026-04-20 18:04 60.99675 4.80599 21301 ft 383 kts 183°
2026-04-20 18:05 60.94367 4.80270 20292 ft 380 kts 183°
2026-04-20 18:05 60.91731 4.80113 19802 ft 378 kts 182°
2026-04-20 18:05 60.89102 4.79958 19318 ft 377 kts 182°
2026-04-20 18:06 60.86483 4.79803 18835 ft 376 kts 182°
2026-04-20 18:06 60.83872 4.79650 18300 ft 375 kts 182°
2026-04-20 18:06 60.81268 4.79495 17756 ft 374 kts 181°
2026-04-20 18:06 60.78675 4.79344 17228 ft 373 kts 181°
2026-04-20 18:07 60.76088 4.79193 16707 ft 371 kts 181°
2026-04-20 18:07 60.73508 4.79040 16193 ft 370 kts 181°
2026-04-20 18:07 60.70934 4.78891 15689 ft 369 kts 181°
2026-04-20 18:07 60.68368 4.78741 15201 ft 368 kts 181°
2026-04-20 18:08 60.65814 4.78593 14710 ft 367 kts 180°
2026-04-20 18:08 60.63264 4.78444 14207 ft 366 kts 180°
2026-04-20 18:08 60.60720 4.78295 13672 ft 365 kts 180°
2026-04-20 18:08 60.58193 4.78448 13125 ft 362 kts 169°
2026-04-20 18:09 60.55804 4.79963 12606 ft 359 kts 157°
2026-04-20 18:09 60.53474 4.81773 12090 ft 358 kts 158°
2026-04-20 18:09 60.51145 4.83536 11593 ft 357 kts 158°
2026-04-20 18:09 60.48819 4.85282 11096 ft 356 kts 158°
2026-04-20 18:10 60.46503 4.87015 10651 ft 353 kts 158°
2026-04-20 18:10 60.44212 4.88724 10255 ft 349 kts 158°
2026-04-20 18:10 60.41946 4.90413 9823 ft 345 kts 158°
2026-04-20 18:10 60.39701 4.92085 9390 ft 342 kts 158°
2026-04-20 18:11 60.37477 4.93736 8970 ft 339 kts 158°
2026-04-20 18:11 60.35276 4.95368 8566 ft 336 kts 158°
2026-04-20 18:11 60.33093 4.96984 8163 ft 333 kts 158°
2026-04-20 18:11 60.30933 4.98581 7745 ft 330 kts 158°
2026-04-20 18:12 60.28812 5.00147 7357 ft 327 kts 158°
2026-04-20 18:12 60.26662 5.01732 6953 ft 321 kts 158°
2026-04-20 18:12 60.24631 5.03227 6536 ft 308 kts 158°
2026-04-20 18:12 60.22630 5.04702 6113 ft 297 kts 158°
2026-04-20 18:13 60.20745 5.06084 5698 ft 288 kts 159°
2026-04-20 18:13 60.18896 5.07442 5288 ft 279 kts 158°
2026-04-20 18:13 60.17093 5.08762 4869 ft 272 kts 158°
2026-04-20 18:13 60.15345 5.10042 4505 ft 263 kts 159°
2026-04-20 18:14 60.13650 5.11279 4182 ft 255 kts 159°
2026-04-20 18:14 60.12008 5.12477 3844 ft 248 kts 159°
2026-04-20 18:14 60.10407 5.13739 3512 ft 247 kts 149°
2026-04-20 18:14 60.09229 5.16151 3154 ft 244 kts 115°
2026-04-20 18:15 60.08932 5.19389 3013 ft 233 kts 83°
2026-04-20 18:15 60.09419 5.22375 3003 ft 223 kts 62°
2026-04-20 18:15 60.10153 5.25096 3009 ft 222 kts 56°
2026-04-20 18:15 60.11266 5.27100 3025 ft 214 kts 26°
2026-04-20 18:16 60.12715 5.27672 3005 ft 215 kts 356°
2026-04-20 18:16 60.14146 5.27056 2962 ft 207 kts 347°
2026-04-20 18:16 60.15542 5.26440 2711 ft 200 kts 350°
2026-04-20 18:16 60.16877 5.25969 2464 ft 190 kts 351°
2026-04-20 18:17 60.18146 5.25551 2212 ft 180 kts 351°
2026-04-20 18:17 60.19353 5.25151 1970 ft 172 kts 351°
2026-04-20 18:17 60.20472 5.24778 1760 ft 155 kts 351°
2026-04-20 18:17 60.21485 5.24442 1595 ft 145 kts 351°
2026-04-20 18:18 60.22479 5.24111 1378 ft 144 kts 351°
2026-04-20 18:18 60.23457 5.23787 1172 ft 140 kts 351°
2026-04-20 18:18 60.24413 5.23458 967 ft 139 kts 350°
2026-04-20 18:18 60.25375 5.23133 757 ft 141 kts 351°
2026-04-20 18:19 60.26364 5.22832 567 ft 146 kts 349°
2026-04-20 18:19 60.27029 5.22585 454 ft 148 kts 348°
2026-04-20 18:19 60.28056 5.22248 271 ft 150 kts 349°
2026-04-20 18:19 60.29324 5.21817 177 ft 105 kts 351°
2026-04-20 18:20 60.29690 5.21692 177 ft 56 kts 351°
2026-04-20 18:20 60.29947 5.21612 177 ft 16 kts 351°
2026-04-20 18:20 60.30024 5.21632 176 ft 12 kts 36°
2026-04-20 18:20 60.30050 5.21824 172 ft 17 kts 103°
2026-04-20 18:21 60.29948 5.21943 171 ft 19 kts 172°
2026-04-20 18:21 60.29790 5.21991 171 ft 28 kts 171°
2026-04-20 18:21 60.29587 5.22057 174 ft 30 kts 171°
2026-04-20 18:21 60.29385 5.22123 178 ft 30 kts 171°
2026-04-20 18:22 60.29180 5.22192 178 ft 31 kts 171°
2026-04-20 18:22 60.28958 5.22266 176 ft 32 kts 171°
2026-04-20 18:22 60.28781 5.22329 176 ft 25 kts 170°
2026-04-20 18:22 60.28688 5.22407 176 ft 12 kts 118°
2026-04-20 18:23 60.28666 5.22577 176 ft 14 kts 83°
2026-04-20 18:23 60.28686 5.22788 176 ft 16 kts 80°
2026-04-20 18:23 60.28695 5.22906 176 ft 2 kts 81°
2026-04-20 18:23 60.28695 5.22907 176 ft 0 kts 81°
2026-04-20 18:25 60.28695 5.22908 176 ft 0 kts 81°